Wind_Speed
19 12 14 15 15 19 21 20 20 11 7 14 15 14 14 11 11 15 13 13 16 15 16 19 18 18 20 20 20 19 16 15 17 20 21 21 20 18 17 15 14 14 11 11 14 16 16 15 16 18 18 19 22 25 27 28 27 27 24 21 21 19 15 14 13 14 15 15 16 17 18 17 16 17 17 18 17 15 14 14 13 12 11 11 11 12
19 14 17 19 16 18 20 20 20 14 10 13 13 12 13 12 11 13 15 14 14 13 13 16 19 19 19 18 19 22 19 16 17 18 19 22 21 19 17 16 15 14 12 13 14 15 15 17 18 17 18 20 23 27 28 28 28 24 20 17 16 16 15 12 12 13 14 15 15 17 18 15 15 17 18 19 18 16 15 15 14 13 12 11 12 12
15 16 20 20 15 15 17 20 21 16 13 11 10 11 11 11 10 10 14 15 13 9 10 14 16 16 18 19 18 19 19 19 21 21 20 20 21 20 18 17 16 15 15 16 16 15 16 18 19 19 18 19 21 23 25 26 24 19 16 15 13 12 12 13 14 14 14 14 15 16 16 15 15 17 18 18 18 16 16 16 15 14 13 12 11 11
14 15 19 20 16 16 16 20 22 16 11 11 9 10 10 11 12 9 11 15 12 9 10 12 12 12 14 17 17 18 20 20 22 25 23 22 21 20 19 17 17 18 17 18 19 19 17 18 20 20 19 19 19 18 20 21 19 16 15 15 15 14 14 17 19 18 15 14 16 16 16 16 16 17 19 18 17 16 16 16 15 14 13 12 11 11
15 13 18 20 18 18 17 17 20 15 10 13 13 11 10 12 14 9 9 14 12 11 12 11 9 10 13 16 15 15 19 20 20 22 23 24 22 20 19 18 17 18 18 19 21 22 20 19 20 20 18 18 18 17 18 17 15 15 15 14 17 20 22 24 23 21 17 16 17 16 16 18 17 18 19 18 18 18 17 16 16 14 12 11 11 10
16 13 15 20 19 19 18 16 19 16 10 12 14 14 12 12 15 11 9 12 9 10 13 12 9 8 12 17 15 13 15 17 16 17 20 22 23 21 21 20 18 18 18 18 20 23 23 20 19 19 19 19 17 17 17 15 16 16 14 16 21 21 23 22 19 19 18 17 17 16 16 17 17 18 20 20 19 18 17 16 15 13 11 11 11 10
13 13 13 18 20 20 18 15 18 18 11 10 13 14 12 11 14 14 11 10 7 7 11 15 11 7 9 15 17 16 15 17 17 15 18 21 22 23 22 21 19 18 18 17 18 21 24 23 20 19 20 19 16 16 17 18 20 19 17 20 21 19 21 21 17 17 18 16 16 17 18 18 19 20 20 19 18 18 17 15 15 13 11 12 11 10
13 16 15 17 19 18 16 13 17 20 13 8 13 15 12 11 14 15 13 10 8 6 8 14 13 8 7 10 14 18 17 17 18 16 17 21 23 24 23 22 20 19 18 18 19 21 23 24 22 20 19 17 15 16 19 22 23 20 18 20 19 19 23 23 19 19 19 17 17 20 21 20 21 21 20 18 17 17 15 14 14 12 12 13 11 10
15 18 17 19 18 15 14 12 15 20 14 8 14 17 13 11 11 12 10 9 9 8 7 12 13 10 8 6 8 15 18 17 18 18 17 20 24 25 24 22 20 19 19 19 21 21 22 23 22 20 18 16 15 18 22 24 23 20 18 19 21 23 24 24 20 19 20 21 22 22 19 20 22 22 20 18 16 15 15 14 13 11 12 14 12 10
13 17 17 17 16 13 15 14 15 19 14 7 13 16 13 11 9 8 8 8 8 9 9 13 15 10 8 8 8 10 15 16 15 15 17 20 24 25 23 22 20 19 19 19 20 20 21 23 21 19 17 16 17 20 23 25 23 20 21 23 25 26 25 25 21 19 20 23 22 20 18 21 24 23 21 19 15 14 15 14 13 12 13 13 12 10
10 17 16 14 14 13 15 16 15 18 14 9 13 14 12 10 8 7 7 7 7 9 11 15 17 12 8 9 10 9 11 14 13 13 15 19 23 24 22 22 22 20 19 19 19 18 19 20 19 17 17 17 19 21 22 25 24 22 24 24 23 24 24 25 22 20 21 22 19 17 18 21 23 22 20 19 17 16 15 14 14 15 13 11 11 10
10 15 13 13 17 15 15 15 15 18 15 10 12 12 10 9 7 6 7 7 8 9 11 15 16 14 11 8 8 9 12 14 13 14 16 18 22 25 24 23 23 21 20 20 19 19 19 19 18 18 18 19 21 21 23 27 25 22 24 23 21 22 22 21 21 22 24 22 18 18 19 21 22 21 18 17 17 16 16 15 16 16 13 12 13 12
8 12 14 15 18 16 13 13 13 15 14 11 12 12 11 9 7 8 9 9 9 8 7 12 14 11 10 8 6 6 11 15 14 13 17 19 21 23 24 23 22 22 21 20 19 20 21 21 20 20 20 21 22 22 25 28 24 21 24 24 22 22 21 19 20 22 24 22 20 20 22 21 21 20 18 17 16 16 17 17 16 15 14 14 16 14
7 11 16 16 15 17 15 13 12 13 14 14 13 13 12 10 9 10 10 9 9 7 5 9 11 9 8 9 10 8 7 11 14 14 17 21 23 23 23 24 23 21 20 20 20 20 21 22 22 21 20 21 23 25 27 27 23 22 24 24 22 20 19 19 19 20 22 21 20 21 22 22 20 19 20 19 16 16 18 18 18 17 15 15 16 15
9 9 14 16 13 17 19 14 13 13 13 13 13 12 11 9 8 8 9 8 9 8 8 9 8 8 6 4 8 12 9 9 13 14 13 16 21 22 23 24 22 21 20 20 20 21 21 22 21 20 19 22 24 25 26 25 22 22 22 21 21 19 18 20 20 20 20 20 23 23 23 23 21 20 22 20 16 15 16 17 18 18 15 14 15 15
11 8 13 17 14 19 20 15 15 14 11 11 11 11 11 9 6 4 2 2 5 7 8 8 6 4 3 3 4 9 12 12 13 13 12 11 14 17 19 21 21 20 21 20 20 21 21 20 20 19 20 23 25 25 25 23 21 23 21 18 18 18 20 21 21 19 16 19 25 25 24 24 22 23 24 20 16 15 16 16 18 18 15 12 13 14
10 7 15 18 15 20 21 16 17 15 10 9 10 12 11 8 6 4 1 3 2 6 6 8 8 5 2 3 7 10 12 14 13 12 13 13 13 14 15 18 19 20 21 21 21 21 21 21 20 20 19 21 23 24 24 22 21 22 21 18 17 19 22 21 20 18 15 19 24 23 22 23 22 23 23 19 17 17 18 19 19 18 15 14 13 12
9 6 14 19 15 19 23 19 17 16 11 9 9 11 9 4 4 5 5 4 5 7 5 7 9 9 6 4 8 12 12 14 15 14 14 14 15 15 15 17 18 19 21 21 22 21 21 21 21 20 19 19 21 23 22 21 22 21 21 20 18 21 23 22 20 17 16 21 24 23 22 21 21 23 21 18 17 18 20 23 22 19 17 15 12 11
10 6 11 17 15 17 21 17 14 16 17 11 8 9 7 5 5 6 5 6 8 7 5 7 9 9 8 6 7 11 13 14 16 17 16 15 15 16 17 17 18 19 20 20 20 20 20 21 21 21 20 19 20 21 20 21 22 22 22 20 19 22 22 21 20 17 19 23 24 25 24 22 22 22 19 17 18 19 22 23 21 20 17 15 12 11
9 5 9 15 15 15 16 13 12 14 15 12 9 9 8 6 6 7 5 4 7 7 6 7 7 6 8 8 7 9 12 14 16 15 15 16 17 18 17 16 18 19 20 20 20 20 20 21 21 21 22 21 21 21 21 21 22 23 21 19 22 23 22 22 20 18 21 24 24 24 24 22 22 20 18 18 19 21 23 21 20 20 17 15 13 11
8 5 7 13 15 14 13 12 14 15 14 11 10 10 9 7 5 7 6 5 5 6 6 6 6 5 6 8 9 10 10 11 14 14 13 14 18 19 16 15 18 19 19 20 20 20 20 20 21 22 21 21 21 21 21 21 23 23 20 20 22 22 22 22 20 20 23 22 21 23 24 22 22 21 20 21 20 21 22 21 22 20 16 15 13 9
6 6 8 12 13 12 12 13 16 17 15 11 9 9 10 8 7 7 7 7 5 4 4 5 5 3 3 3 7 10 9 9 12 14 13 12 14 14 14 15 18 19 20 21 20 20 20 21 22 23 21 22 22 23 23 22 22 21 20 20 22 23 23 21 21 22 23 20 19 23 23 21 22 22 22 22 21 20 21 22 22 19 16 15 11 8
3 3 9 11 10 10 12 15 16 17 16 12 9 9 10 9 8 7 6 7 6 3 1 2 3 2 4 2 1 3 3 4 7 10 9 10 12 13 13 15 18 19 19 20 20 20 21 22 23 23 22 23 24 24 24 21 19 19 20 21 24 26 25 24 24 22 20 18 20 22 20 17 20 21 20 20 21 21 23 24 23 20 17 14 10 8
3 4 9 10 9 9 10 13 14 15 15 13 11 10 11 10 10 8 5 5 6 6 4 3 4 2 4 2 0 2 3 3 4 5 7 10 12 13 14 16 17 18 19 19 19 20 21 22 22 23 24 25 25 24 22 20 20 20 22 25 26 25 25 25 23 19 18 18 20 21 20 18 18 18 17 18 21 23 24 25 24 20 17 13 10 9
4 5 10 10 9 8 8 11 12 13 14 12 10 12 13 13 12 8 5 3 5 7 6 4 4 5 4 3 4 3 4 5 5 6 8 10 12 14 15 16 17 18 19 20 21 22 22 22 22 23 25 26 24 23 21 21 22 23 26 27 25 24 25 24 20 17 18 19 20 22 22 20 19 18 17 19 22 24 24 24 23 20 16 12 10 9
5 5 8 10 10 10 10 12 12 13 12 10 12 15 15 17 16 9 5 5 6 6 5 6 3 7 7 6 6 5 5 6 6 8 9 10 12 14 15 16 17 18 19 21 23 22 22 23 22 23 25 25 23 22 22 22 24 26 28 26 25 27 27 23 19 18 18 19 21 23 22 20 20 20 19 18 20 23 24 24 23 19 15 12 10 8
4 5 8 9 9 10 10 10 11 13 13 12 15 18 17 17 17 11 7 7 6 4 6 7 3 2 4 5 7 5 5 5 7 8 10 11 13 14 15 17 18 19 21 23 23 22 23 23 23 24 25 24 23 21 22 25 27 28 26 24 25 27 25 20 18 18 18 20 22 23 22 21 20 19 18 17 20 25 25 24 21 18 14 12 10 9
3 5 7 7 9 9 8 8 10 13 15 14 16 17 16 17 17 14 10 8 7 6 5 1 3 4 3 5 6 5 5 5 6 8 10 12 14 15 16 19 20 21 22 23 22 22 23 24 24 24 24 24 23 23 25 28 28 25 24 24 25 25 21 18 18 17 19 21 23 22 22 22 20 19 19 19 21 25 26 23 20 16 14 13 12 11
3 5 6 6 8 8 6 9 12 14 15 15 15 16 16 17 18 16 12 9 8 6 2 6 7 6 5 7 7 5 4 3 6 8 10 12 15 16 18 20 21 22 23 23 23 23 24 24 23 23 24 24 23 25 28 28 25 23 23 24 25 23 19 18 19 19 19 19 20 21 22 23 22 21 21 22 23 25 25 22 18 16 16 15 14 12
3 3 4 4 7 7 7 10 15 17 16 15 16 17 17 17 17 16 14 12 12 11 5 5 9 9 6 6 6 5 4 4 6 9 11 14 16 17 19 21 21 21 22 23 24 25 24 23 22 24 25 24 25 26 27 25 23 22 24 25 25 22 18 19 20 18 18 18 19 21 22 23 24 23 23 24 25 26 24 20 18 18 17 15 14 12
3 2 2 3 5 8 10 10 13 17 17 16 17 17 18 17 17 16 15 13 14 14 9 8 11 8 3 5 5 4 4 4 7 9 12 14 16 18 19 20 21 21 22 22 23 24 23 22 24 24 24 24 25 26 24 23 23 24 26 26 25 21 19 21 20 17 18 20 22 23 23 23 25 25 25 25 25 24 22 19 19 18 16 15 14 13
4 2 2 3 4 8 12 12 14 16 15 15 16 18 19 17 16 16 14 13 14 12 7 7 8 4 4 5 3 3 3 4 6 9 11 14 16 18 19 20 21 22 22 22 23 23 22 24 26 26 24 25 26 25 25 25 25 26 27 25 23 21 20 22 20 17 18 22 23 23 24 25 27 26 26 26 25 22 20 19 18 17 16 16 15 16
4 2 1 2 2 8 13 14 14 14 13 12 12 16 18 17 15 15 14 14 14 9 6 6 4 3 4 3 2 1 2 4 5 8 10 13 15 17 18 20 21 23 23 24 24 23 23 25 26 25 26 27 27 27 26 25 24 25 25 23 21 20 21 21 20 18 19 21 22 23 25 27 28 27 26 26 24 21 20 19 19 17 17 17 17 17
3 4 2 2 1 8 13 13 12 12 10 5 4 9 16 18 17 16 15 14 12 9 7 7 5 4 3 2 2 1 2 3 5 8 10 12 14 16 17 19 20 22 23 24 23 22 23 25 24 25 28 29 28 27 24 21 23 25 23 20 20 22 22 22 20 19 21 21 21 24 27 28 28 27 26 24 22 20 20 19 18 17 18 18 18 18
4 3 3 3 2 7 10 10 10 9 6 3 3 3 8 11 14 15 15 13 12 11 11 10 8 5 3 2 2 2 2 3 5 7 10 13 15 16 17 19 20 21 23 23 22 22 23 24 24 27 29 29 29 27 22 20 23 23 19 19 23 24 24 22 20 20 22 22 24 27 28 27 27 26 24 22 21 20 19 18 19 20 19 19 18 18
5 4 4 4 3 7 9 8 8 6 6 7 5 5 5 5 8 11 12 10 8 9 10 10 7 3 2 1 1 2 3 4 5 7 10 12 14 15 17 19 19 20 21 22 22 22 22 24 26 29 30 29 28 24 20 20 21 20 18 21 25 26 23 22 22 23 24 24 27 29 28 27 27 25 22 21 21 20 19 20 21 21 19 18 17 17
7 7 4 3 3 6 8 8 6 7 7 7 6 6 4 3 4 6 7 5 2 3 7 7 4 1 1 3 4 4 5 6 6 7 10 11 12 14 15 17 19 19 19 19 20 20 21 24 26 26 26 26 25 22 20 20 21 21 19 22 25 25 23 23 23 24 24 25 28 30 28 27 26 24 22 22 21 21 21 21 20 18 17 17 16 18
7 7 5 3 4 6 8 8 7 7 7 6 5 6 4 2 1 1 4 4 3 1 3 5 4 3 4 4 5 6 7 6 5 6 10 12 12 13 14 16 18 19 18 18 19 20 21 23 23 21 22 22 23 21 19 20 22 23 21 22 26 26 23 22 23 23 24 25 28 29 28 27 25 23 22 22 21 22 21 19 18 17 16 16 17 21
7 6 5 4 5 6 8 8 7 6 4 4 5 5 4 2 2 1 5 5 2 4 3 4 4 3 5 6 7 7 5 4 4 7 10 12 12 13 14 16 17 18 18 17 18 20 21 20 20 21 22 22 23 21 20 21 23 24 22 23 27 26 22 21 22 21 23 26 29 30 29 28 25 23 21 20 21 23 22 19 18 17 16 17 21 24
5 4 4 5 6 7 8 7 5 4 5 5 5 5 4 3 4 6 7 4 4 5 3 3 3 3 4 7 8 5 2 3 4 4 7 11 12 12 13 15 16 17 18 17 17 20 21 20 21 24 23 22 22 22 22 23 26 26 23 21 24 24 21 21 21 20 20 24 27 27 28 28 25 22 22 21 22 25 24 22 21 19 17 20 24 24
2 2 3 4 6 7 7 7 6 5 4 5 7 5 3 4 5 6 5 2 6 6 3 2 3 2 3 6 6 2 4 6 6 2 6 12 13 12 12 14 15 16 18 19 18 19 20 20 22 22 21 20 21 23 24 24 26 27 24 21 21 21 19 19 20 19 19 21 22 24 26 27 23 21 22 23 24 25 24 23 24 20 16 19 24 24
1 1 1 3 4 4 5 6 6 6 4 8 7 4 3 2 4 3 2 2 5 5 4 1 3 2 3 4 3 1 7 10 8 4 11 12 12 13 13 13 15 15 17 19 18 17 18 20 20 21 21 22 22 23 24 24 26 27 24 20 19 19 19 18 19 19 20 20 21 23 25 24 21 19 22 24 23 23 23 23 23 20 16 19 25 25
4 2 3 5 2 1 5 6 6 6 6 11 6 1 3 2 2 2 3 3 5 7 5 2 1 2 3 5 4 1 7 10 8 10 14 12 12 13 13 13 15 16 17 18 16 15 16 19 21 22 24 24 23 22 23 26 27 24 21 19 20 21 21 21 20 20 20 20 21 24 25 23 21 21 23 24 23 23 24 24 24 22 19 20 25 26
5 3 3 4 3 1 4 5 4 4 6 11 7 6 6 6 4 4 5 5 8 9 6 4 3 4 4 5 6 4 5 8 8 12 13 12 13 12 12 14 16 16 16 16 15 14 14 17 21 22 22 22 22 22 23 27 25 19 17 19 20 21 23 22 20 20 21 22 23 24 24 22 22 23 24 25 24 23 23 23 25 24 20 18 22 25
6 5 3 3 4 4 5 5 4 5 7 10 11 10 8 7 5 5 7 8 9 9 8 6 4 4 5 6 8 6 5 7 7 9 11 12 13 13 13 14 15 15 14 14 15 16 15 16 19 22 22 21 20 21 25 27 23 17 18 20 20 22 25 25 21 20 23 25 25 24 23 24 24 25 25 26 25 23 23 24 24 21 18 18 21 24
5 4 3 2 3 5 7 6 5 8 10 11 11 10 8 8 7 6 7 9 9 9 8 7 5 2 5 7 8 7 5 6 7 8 9 10 12 13 13 13 13 13 13 13 15 17 18 16 15 18 23 23 20 21 24 24 20 17 20 22 21 21 24 25 23 22 25 26 25 25 26 27 27 27 27 26 25 23 22 24 23 20 19 19 21 23
3 3 1 2 2 2 5 6 5 7 10 12 12 10 9 8 7 6 8 9 8 8 8 7 4 3 6 7 7 7 7 6 7 8 9 11 12 12 12 12 12 12 12 12 14 15 15 15 14 16 20 23 23 24 24 23 21 20 21 21 21 20 21 23 25 25 26 26 26 27 29 29 29 29 27 25 24 22 21 22 23 21 20 21 23 23
2 4 2 4 4 3 3 4 5 7 11 14 13 10 9 8 7 8 10 9 7 7 8 7 5 5 6 6 7 8 8 7 7 8 9 11 12 13 13 13 13 13 12 12 13 14 12 12 13 15 18 20 21 24 25 23 22 22 19 20 22 21 19 22 26 26 25 26 27 28 30 30 30 30 28 25 24 23 21 22 23 23 21 22 24 24
3 4 2 4 3 3 4 2 3 5 10 13 13 10 9 10 11 11 11 10 9 9 10 9 8 7 7 7 7 8 9 8 8 8 8 10 12 13 15 15 14 14 14 13 14 13 12 12 12 13 17 19 20 22 24 22 21 20 19 20 22 22 21 23 25 25 25 26 27 29 30 30 30 28 27 26 24 21 20 22 25 24 22 21 22 22
2 1 2 3 4 4 3 3 4 2 5 9 12 10 11 13 13 13 13 12 11 11 11 11 11 10 10 9 8 8 9 9 8 8 8 9 10 13 16 16 15 14 15 15 15 14 12 12 13 13 15 18 20 22 23 22 22 22 21 23 24 25 25 26 25 25 25 25 27 30 31 31 30 28 25 23 21 21 23 25 27 26 24 23 24 25
4 3 3 1 2 3 3 3 5 4 6 8 10 10 11 13 12 12 12 12 11 12 12 11 12 12 11 10 8 8 9 9 8 8 8 8 10 12 15 15 13 14 14 15 15 15 13 13 14 13 13 15 17 21 22 22 23 25 24 24 26 27 28 26 25 25 23 20 23 30 32 31 31 27 23 21 22 24 27 28 29 29 28 26 26 28
Wind_Direction
195 201 207 210 207 205 203 208 213 215 234 216 197 196 200 199 202 205 205 192 192 208 214 215 222 225 227 230 227 220 209 208 216 215 215 215 214 214 214 211 210 213 204 184 179 182 182 184 184 185 187 187 194 204 208 209 211 211 210 207 208 208 197 188 186 188 193 199 197 190 190 192 188 187 191 190 187 188 192 193 193 196 198 199 203 202
198 210 214 211 210 208 202 208 214 213 223 211 195 197 200 206 210 197 204 202 193 214 221 212 223 228 227 230 226 224 219 209 209 211 214 216 215 214 215 211 209 206 193 178 172 177 184 188 187 186 189 192 200 207 208 210 211 208 204 199 202 206 197 186 187 190 193 195 194 192 191 188 185 189 193 191 188 188 193 193 192 195 197 198 201 201
201 218 216 208 207 210 202 203 209 208 208 203 193 203 205 204 208 193 198 206 198 212 226 213 221 229 228 232 228 222 223 218 214 214 215 217 215 214 214 212 207 199 186 176 175 180 189 194 191 190 193 197 203 207 206 208 207 201 196 190 189 198 194 191 194 194 194 193 191 192 190 186 190 195 196 195 190 189 192 192 191 191 192 194 196 199
202 216 213 206 203 206 202 198 203 203 205 211 203 204 207 196 199 196 192 203 205 208 228 225 225 233 228 231 231 223 223 222 218 218 218 219 218 214 213 212 207 200 189 181 182 186 192 194 194 196 198 201 202 202 203 203 199 193 187 182 190 205 210 209 206 201 195 191 190 192 192 192 196 198 196 195 191 188 191 190 189 190 190 191 193 197
208 207 202 204 202 200 198 191 197 203 206 215 216 211 210 197 198 204 183 190 201 210 223 229 230 234 226 226 227 217 218 221 217 215 215 217 219 217 216 215 210 204 197 189 186 190 196 195 197 201 201 204 203 199 199 195 187 182 175 188 209 216 218 216 210 205 199 194 194 192 191 193 198 198 194 192 190 189 192 190 189 191 191 192 192 192
214 201 195 202 199 198 201 194 197 202 203 209 213 215 216 199 195 201 178 174 194 209 207 213 230 231 218 224 224 207 206 212 209 207 209 212 214 216 217 215 212 206 202 196 189 195 203 199 199 202 203 206 204 200 198 184 175 177 184 212 221 215 214 213 205 200 199 198 196 188 182 187 195 199 195 192 193 194 193 190 189 192 191 193 194 189
212 195 197 202 195 198 205 201 197 198 204 205 197 205 214 197 190 198 193 184 204 217 193 198 224 240 211 216 219 209 202 204 202 202 207 209 209 212 213 211 209 204 199 196 191 196 203 203 202 203 207 208 201 201 196 181 183 196 207 215 216 214 213 211 203 198 200 195 188 186 187 192 199 201 197 194 197 198 194 190 190 191 192 195 195 187
205 190 191 197 194 201 205 198 193 193 205 203 179 187 199 192 192 199 204 207 221 228 191 192 215 243 227 211 209 206 203 202 200 199 204 206 207 209 209 208 205 202 198 194 194 197 201 205 205 204 209 207 199 202 196 191 200 211 212 208 211 216 216 215 209 200 202 198 196 202 201 200 201 199 197 197 198 198 194 194 193 191 198 197 190 189
197 190 188 195 198 202 202 195 186 189 207 204 171 181 192 193 196 198 206 217 221 225 213 197 205 232 234 205 190 196 202 205 199 196 200 202 205 206 206 206 204 203 201 198 200 199 198 205 206 202 207 203 200 205 201 203 210 208 208 209 209 213 215 217 209 196 204 211 212 211 200 194 197 195 197 200 201 199 198 202 199 196 205 197 183 188
189 195 193 200 203 200 198 195 182 188 203 184 164 176 185 193 198 201 213 217 213 224 228 207 198 214 233 211 190 190 203 208 197 191 198 200 202 204 204 204 204 203 202 201 203 199 197 206 204 198 201 199 203 209 204 208 212 204 204 209 208 208 211 213 206 195 206 217 216 210 196 190 192 193 198 202 202 204 205 207 203 203 210 199 184 184
179 195 198 205 206 199 196 193 183 190 192 157 164 176 175 187 196 203 222 223 218 225 227 217 204 207 229 221 204 197 201 206 198 191 195 197 200 203 202 202 203 202 201 201 201 195 195 203 200 194 197 199 206 208 204 211 216 204 202 208 209 208 207 209 206 199 205 214 210 203 198 192 191 192 194 197 201 209 213 210 207 210 209 193 181 182
179 191 194 202 205 200 195 188 182 191 189 167 177 180 167 179 191 196 208 215 227 228 217 215 210 209 223 224 207 197 192 198 200 196 191 191 197 199 199 202 203 202 201 200 197 191 189 194 195 194 197 201 206 204 204 216 219 206 205 212 211 208 206 202 200 200 205 209 200 196 199 195 197 200 194 196 205 212 218 216 210 206 197 185 182 181
188 190 184 191 200 200 192 182 179 188 190 185 187 182 174 175 178 195 202 203 219 228 209 204 203 210 227 231 224 201 189 194 199 199 194 191 192 193 195 199 200 200 201 197 193 189 187 191 195 195 196 202 205 202 208 220 220 208 210 213 208 208 205 197 199 202 205 206 200 200 205 202 201 202 197 201 209 212 219 217 206 198 192 191 186 176
181 187 186 187 192 196 195 184 178 182 187 192 188 183 183 177 177 195 199 200 212 209 190 195 200 216 234 230 225 218 199 195 197 201 199 194 193 190 191 195 197 197 196 193 191 188 188 194 196 194 194 200 204 205 214 223 219 209 209 210 209 207 200 197 202 200 196 199 202 205 209 206 203 197 195 201 207 214 221 213 202 201 202 199 188 173
174 177 187 189 183 189 200 197 181 176 184 194 192 190 196 187 184 197 195 198 203 189 176 180 196 218 219 204 206 208 206 200 200 202 199 194 194 192 191 193 193 192 191 191 191 188 190 195 193 190 194 201 204 206 214 221 216 208 207 206 207 202 192 191 194 193 192 194 203 210 209 206 203 198 196 200 203 213 217 206 203 207 204 199 186 169
182 176 179 190 188 186 197 199 184 180 183 191 194 198 205 201 189 188 201 210 195 182 177 182 200 215 185 116 149 195 205 200 195 196 193 188 186 184 185 187 187 189 190 189 190 190 191 191 188 187 195 204 204 202 209 213 208 207 204 200 199 192 185 186 192 198 194 188 196 204 205 201 201 201 200 200 201 206 208 204 207 207 195 185 172 160
183 164 165 184 194 188 194 197 188 189 183 180 197 200 199 212 211 187 117 49 155 194 185 186 207 216 209 189 173 182 198 198 191 190 194 194 186 180 180 182 185 188 188 188 190 191 191 189 187 187 196 203 200 201 206 203 200 202 202 199 192 180 182 191 200 202 187 178 186 191 193 193 193 197 198 198 203 207 207 206 205 197 180 166 159 158
179 141 157 181 188 183 194 197 191 202 202 181 192 192 178 205 242 206 184 153 181 209 190 180 204 211 216 205 171 177 193 196 194 195 196 195 192 192 191 190 190 187 186 188 190 191 190 188 185 187 196 200 198 200 200 196 196 198 203 205 187 174 185 197 200 195 178 176 180 181 184 185 186 192 193 193 203 209 209 205 197 185 171 158 156 163
183 144 155 183 183 174 190 197 189 204 213 204 194 186 177 189 201 196 196 183 190 210 209 198 207 210 210 198 168 180 193 194 195 198 199 198 194 196 197 194 187 181 180 183 185 186 186 185 184 188 194 196 195 195 193 192 193 195 206 206 178 172 189 195 190 184 176 177 179 179 181 182 184 189 189 193 200 207 209 202 188 177 168 160 162 165
192 171 154 179 181 170 184 197 189 192 203 208 203 194 200 211 199 194 204 199 192 203 212 206 205 208 213 210 192 185 188 193 196 197 200 201 198 199 198 187 177 174 175 177 180 182 182 182 184 187 191 192 190 187 188 191 190 193 202 191 171 177 189 188 183 178 175 176 177 180 182 183 186 190 195 199 201 206 207 193 177 170 165 164 166 162
195 191 157 169 175 174 184 197 195 187 186 198 201 191 194 203 203 199 202 216 213 204 203 208 216 211 197 203 212 209 200 193 192 195 200 203 203 201 196 180 170 170 171 174 177 178 180 180 182 186 189 186 183 183 186 189 190 193 191 176 170 179 187 185 179 174 172 169 173 183 184 185 188 191 198 202 202 206 201 181 168 165 163 164 163 159
194 184 163 165 173 182 187 191 198 193 185 194 200 189 190 191 192 192 189 205 227 223 205 210 224 205 135 163 211 214 211 197 191 197 201 198 193 187 177 170 166 165 168 172 175 176 177 178 181 183 182 179 181 183 185 189 192 189 179 168 168 173 178 177 169 167 167 163 176 189 188 190 194 193 196 200 199 197 188 172 163 163 166 164 159 159
207 194 167 165 174 183 178 183 201 200 188 196 207 197 195 194 197 199 182 183 204 222 230 213 216 152 78 55 229 190 178 173 181 192 189 176 170 164 159 161 162 163 167 170 172 175 177 178 179 178 177 179 182 186 188 188 184 177 170 166 165 167 171 170 165 167 167 167 180 184 179 191 201 195 195 200 196 187 178 170 165 165 167 161 155 166
207 207 166 157 162 169 166 175 198 203 191 197 209 203 200 196 199 213 202 172 188 196 184 190 197 134 74 67 94 108 125 138 152 171 168 160 159 161 159 159 160 161 165 167 171 174 175 176 175 174 176 180 184 188 188 179 170 164 163 164 162 163 168 168 168 172 172 172 175 172 171 185 196 193 194 197 192 183 176 172 168 165 163 157 160 175
197 188 160 152 154 155 160 170 189 204 199 197 203 201 200 196 196 212 219 193 194 193 192 203 173 120 93 118 129 126 153 158 152 160 164 159 158 161 160 158 160 160 163 168 171 172 172 173 173 174 177 182 186 185 178 171 166 159 160 165 166 164 168 169 168 169 169 169 168 168 174 184 188 188 192 194 189 181 175 172 168 165 164 162 169 178
196 189 164 160 159 160 174 180 182 192 195 196 198 196 197 198 196 199 205 200 195 185 203 230 162 107 115 127 113 113 142 150 147 156 162 159 158 159 158 157 159 162 165 169 169 169 171 172 172 175 178 181 182 180 175 169 163 161 164 170 170 169 171 171 167 166 169 171 171 171 176 184 190 191 192 191 185 178 174 173 170 167 164 166 177 183
199 201 185 180 181 176 178 184 184 183 185 192 194 192 195 200 199 199 204 204 193 175 202 231 259 82 111 91 80 98 131 140 147 156 160 158 158 160 159 158 161 165 168 168 167 169 171 171 172 175 178 180 180 178 173 166 163 167 171 172 171 172 172 171 168 168 174 178 177 176 177 182 190 191 185 182 180 176 173 173 172 167 164 173 185 187
215 199 191 199 209 193 163 159 174 181 186 190 191 192 194 198 200 202 208 209 201 196 193 191 348 326 332 18 38 81 121 143 154 160 162 159 160 162 161 160 164 167 167 166 167 169 170 170 171 174 178 180 177 170 165 165 169 174 172 170 173 173 170 167 162 164 178 184 181 178 178 181 185 182 175 176 179 176 171 173 173 170 175 184 185 182
258 199 180 195 210 201 173 165 170 176 182 185 188 191 192 196 202 204 210 221 223 219 166 53 19 332 333 0 18 59 96 143 157 162 166 162 162 164 162 163 166 167 167 166 166 169 170 169 171 175 179 178 170 165 168 173 176 175 170 169 170 169 166 163 160 168 182 187 184 183 182 181 177 173 171 173 176 174 173 175 175 175 181 185 182 179
269 186 165 204 210 203 203 185 173 174 177 180 186 190 190 196 203 204 212 230 244 251 268 349 335 319 339 6 23 60 87 131 150 161 167 166 166 166 164 165 167 167 167 167 166 168 169 169 171 175 175 171 168 173 177 177 175 171 168 167 168 168 165 160 164 176 182 180 186 189 186 180 172 168 169 170 170 172 174 175 177 180 182 181 180 175
227 182 165 243 217 189 192 188 177 177 180 181 185 188 190 194 199 204 212 225 240 250 264 296 302 307 17 45 46 71 105 138 151 162 166 167 168 166 165 166 165 164 165 165 165 166 165 167 171 170 165 165 173 179 179 174 171 168 167 168 170 170 163 161 168 181 184 183 188 189 184 177 170 166 168 170 170 172 174 175 181 183 181 178 176 168
206 220 212 249 213 170 177 186 179 176 181 187 189 189 190 192 196 201 207 218 233 244 253 265 276 296 55 56 57 96 136 153 156 162 165 165 166 166 166 166 164 163 163 163 163 164 164 166 168 167 166 170 176 178 173 170 167 167 170 174 174 170 165 166 171 178 185 188 189 186 182 176 170 168 172 174 173 173 174 179 184 183 180 179 173 164
220 257 275 261 199 156 169 184 178 171 182 194 193 191 190 190 194 198 206 219 230 239 242 244 262 23 50 41 50 119 168 170 163 167 168 164 164 167 167 165 165 164 164 163 163 164 166 167 168 169 172 175 177 176 172 169 166 169 175 177 174 171 170 170 175 181 185 188 188 185 180 176 172 173 175 175 174 174 179 184 184 182 181 176 167 160
260 265 300 316 204 153 161 175 177 177 184 183 180 193 193 193 193 196 205 219 224 225 235 254 292 348 10 3 354 267 195 169 163 169 167 163 164 167 166 163 164 166 165 164 163 164 166 168 168 170 174 177 177 175 171 168 167 168 171 173 175 176 174 174 181 186 184 184 185 182 179 177 175 174 175 176 178 181 184 185 183 181 178 170 161 157
281 271 300 304 214 151 153 167 176 181 172 86 64 172 185 191 198 202 210 221 228 229 237 253 277 308 341 360 339 262 205 171 164 162 158 161 165 166 165 163 163 166 167 164 163 165 168 168 168 171 175 177 176 172 169 170 170 166 166 174 180 180 178 178 181 183 182 183 182 179 178 178 178 177 179 181 184 184 181 179 176 174 170 163 158 157
282 297 300 276 192 146 156 170 168 152 112 89 106 130 134 170 197 206 214 222 235 242 242 246 257 302 348 305 228 204 187 173 167 159 156 161 164 164 165 165 162 163 166 164 163 166 168 169 172 175 176 176 174 171 169 171 171 168 172 183 185 181 180 182 181 181 182 184 183 179 178 179 180 181 182 184 184 179 172 171 170 166 162 158 156 157
272 282 274 236 191 164 166 160 142 137 126 115 122 124 126 178 189 202 214 208 208 247 246 244 236 181 208 219 186 169 166 162 159 161 160 159 157 157 161 164 162 160 161 164 164 165 169 173 176 177 176 175 174 172 169 170 171 172 177 186 187 181 180 183 185 185 184 184 184 181 179 180 181 182 185 187 183 175 170 168 165 160 159 157 153 157
264 264 263 239 215 190 170 153 146 154 147 126 108 92 56 356 22 286 237 190 117 37 269 254 237 184 179 186 169 162 165 161 153 156 161 157 150 148 149 154 158 157 158 162 161 163 174 179 177 174 174 175 175 174 170 171 174 176 178 184 187 184 181 180 184 186 185 184 185 184 180 180 182 184 187 187 182 177 172 165 161 162 162 157 154 160
243 246 263 253 212 180 165 158 155 151 119 85 82 73 39 19 80 227 221 182 94 20 335 268 242 189 166 162 162 169 176 162 116 128 151 157 150 144 141 143 149 153 157 162 162 166 176 178 172 173 175 175 175 175 176 177 177 178 178 182 187 188 184 180 181 182 182 182 185 185 182 182 183 185 185 181 178 177 174 167 164 163 160 159 162 164
219 211 232 223 184 162 161 153 135 114 82 49 29 30 42 101 150 196 195 155 46 14 351 275 238 189 157 154 160 175 168 101 70 96 149 159 153 146 142 140 144 150 154 157 161 169 175 175 174 175 175 173 173 175 181 184 182 179 176 178 184 186 186 184 181 175 174 178 182 183 183 183 182 184 185 182 177 176 175 173 170 164 158 161 166 165
157 173 218 191 152 143 148 136 113 97 67 16 1 19 69 143 176 194 183 80 8 6 11 299 243 192 145 155 165 155 63 50 19 16 162 161 155 147 144 144 145 147 151 155 160 166 170 174 177 175 171 172 176 181 187 187 183 180 178 177 181 182 181 180 177 172 171 176 181 182 182 182 183 186 188 184 179 176 175 175 173 166 155 160 166 166
34 331 96 109 120 134 136 125 116 107 47 349 348 38 67 188 183 158 102 20 353 7 32 350 236 188 142 155 172 26 28 24 19 95 144 152 152 149 149 149 149 151 156 160 165 169 169 171 175 177 175 174 178 186 189 183 178 180 181 178 180 180 177 175 174 173 173 176 180 181 181 185 190 191 187 181 178 177 175 175 176 169 156 161 169 170
348 327 94 72 29 156 134 120 120 111 29 345 335 81 42 16 98 47 17 43 29 22 40 71 146 167 156 157 163 46 11 19 51 110 133 143 147 148 150 150 155 160 162 162 165 167 167 170 176 183 184 180 181 189 188 179 175 179 182 182 183 183 179 176 176 176 174 173 178 182 186 190 190 185 181 178 177 178 176 176 177 173 165 166 171 171
5 4 81 60 355 334 118 105 100 93 32 10 29 83 60 39 43 13 7 37 34 21 25 49 91 148 166 164 159 133 37 39 82 114 127 136 140 143 144 147 156 160 159 162 166 164 163 170 179 184 185 185 189 189 182 177 177 178 181 184 183 181 181 178 176 176 176 178 184 188 190 189 182 177 178 179 177 178 178 176 175 174 170 166 169 170
20 11 25 41 30 48 79 91 84 74 57 48 60 73 57 38 36 29 29 34 26 15 9 15 51 128 160 163 156 136 76 62 95 116 119 127 138 143 144 150 159 161 158 162 170 172 170 171 178 184 184 185 190 189 181 179 181 183 186 186 181 181 185 183 177 175 179 184 190 192 188 183 178 176 178 179 179 179 180 177 174 173 169 167 169 171
9 347 327 8 47 72 83 87 79 71 66 63 65 63 45 32 32 38 47 42 27 13 2 359 13 97 157 158 155 147 114 89 109 130 131 129 137 142 141 143 152 159 160 163 171 178 176 168 171 185 188 184 186 189 185 181 183 193 200 197 187 182 185 185 181 179 183 188 191 190 184 179 177 177 180 181 181 182 184 182 178 173 169 169 171 173
30 342 334 62 33 56 90 79 61 63 61 56 58 53 35 31 39 49 58 50 27 14 13 12 21 99 143 151 152 149 137 115 116 135 143 140 139 141 144 146 149 154 161 168 171 172 173 170 171 185 190 186 186 189 187 184 188 200 209 206 194 183 181 185 188 187 188 190 189 184 181 179 177 178 180 181 181 183 186 186 181 174 170 172 175 174
16 332 21 79 45 25 99 81 60 78 74 61 56 47 28 30 48 64 71 65 42 33 41 42 51 90 119 136 139 136 133 124 119 128 141 148 149 150 154 156 155 155 160 170 169 161 161 171 180 188 190 188 187 189 189 189 194 202 208 207 197 184 178 187 192 191 189 189 185 182 181 180 177 176 178 180 183 185 186 187 184 177 173 176 178 177
299 320 28 104 97 108 126 77 43 103 95 66 52 45 40 41 45 52 62 63 55 53 58 64 71 84 104 120 125 126 127 123 119 122 134 150 159 163 163 159 157 159 160 163 164 159 156 162 171 183 190 189 189 192 193 195 198 201 206 206 199 189 185 190 193 191 189 187 184 183 182 179 176 177 179 181 182 182 182 187 186 180 175 178 182 181
314 35 84 135 137 127 117 28 12 82 92 55 37 35 48 54 53 55 57 53 52 57 64 74 83 87 98 109 117 124 124 120 121 123 129 144 161 171 169 161 157 162 164 163 164 164 161 161 164 171 183 190 195 198 199 199 199 200 203 204 201 197 195 194 192 190 187 185 185 185 182 177 177 180 180 177 177 180 184 186 184 180 177 180 184 186
22 31 25 42 100 101 84 47 43 60 69 53 36 35 52 60 59 62 62 56 57 63 67 74 82 85 91 99 105 115 121 121 124 126 129 142 157 169 173 167 158 160 166 171 174 171 167 169 170 172 181 194 203 206 206 205 204 204 204 202 201 200 198 196 193 189 183 179 184 185 181 178 180 181 176 174 179 186 189 187 184 184 186 186 186 187
Height
1466 1465 1460 1454 1451 1450 1451 1451 1448 1446 1447 1445 1447 1451 1451 1454 1454 1451 1452 1452 1455 1460 1459 1460 1462 1461 1461 1460 1460 1462 1464 1465 1465 1466 1467 1469 1471 1472 1475 1477 1479 1481 1484 1485 1486 1488 1489 1491 1492 1494 1495 1497 1498 1500 1502 1505 1507 1509 1511 1513 1516 1519 1522 1524 1526 1529 1532 1533 1534 1535 1537 1538 1540 1541 1542 1543 1545 1546 1547 1549 1550 1551 1553 1554 1555 1555
1462 1458 1449 1446 1448 1448 1450 1453 1450 1449 1449 1445 1446 1449 1449 1451 1449 1447 1450 1451 1453 1458 1456 1456 1459 1457 1456 1456 1456 1457 1459 1461 1463 1464 1465 1466 1468 1470 1472 1475 1477 1480 1482 1483 1484 1486 1488 1489 1490 1492 1493 1494 1496 1498 1500 1503 1505 1508 1511 1514 1517 1519 1522 1525 1527 1529 1531 1532 1534 1535 1537 1539 1540 1541 1542 1543 1544 1545 1546 1548 1549 1550 1551 1552 1554 1555
1457 1451 1444 1445 1448 1448 1449 1452 1451 1451 1451 1446 1446 1448 1447 1446 1446 1446 1449 1449 1451 1457 1455 1454 1457 1455 1452 1452 1451 1453 1454 1456 1459 1461 1463 1465 1466 1468 1470 1472 1475 1477 1480 1481 1482 1484 1486 1487 1488 1490 1491 1492 1494 1496 1499 1501 1504 1508 1511 1514 1518 1520 1523 1524 1525 1527 1528 1530 1532 1534 1536 1538 1540 1541 1542 1543 1544 1545 1546 1547 1548 1549 1550 1551 1552 1553
1449 1444 1442 1444 1446 1448 1448 1449 1451 1452 1452 1447 1443 1445 1444 1442 1445 1448 1450 1450 1450 1454 1455 1453 1454 1452 1449 1449 1448 1450 1451 1452 1456 1458 1460 1463 1464 1465 1468 1470 1472 1474 1477 1479 1480 1482 1484 1485 1486 1488 1489 1490 1493 1495 1498 1501 1504 1508 1511 1514 1517 1519 1520 1521 1521 1523 1525 1527 1529 1532 1535 1537 1539 1540 1541 1542 1543 1544 1545 1546 1547 1548 1549 1550 1551 1552
1440 1438 1440 1443 1443 1446 1448 1449 1450 1452 1452 1447 1443 1442 1441 1440 1443 1444 1445 1448 1450 1453 1453 1453 1456 1452 1446 1446 1445 1446 1449 1449 1452 1454 1457 1460 1462 1464 1465 1467 1470 1472 1474 1476 1478 1479 1481 1483 1484 1486 1488 1489 1491 1494 1497 1501 1505 1507 1511 1514 1515 1514 1514 1514 1517 1519 1522 1524 1526 1529 1533 1536 1538 1539 1541 1542 1542 1543 1544 1545 1546 1547 1548 1549 1551 1551
1436 1436 1439 1441 1443 1446 1448 1448 1448 1449 1449 1447 1444 1441 1438 1439 1442 1442 1442 1447 1454 1456 1451 1453 1463 1454 1441 1442 1442 1441 1445 1447 1449 1451 1454 1456 1459 1461 1463 1464 1467 1469 1472 1474 1475 1477 1478 1480 1483 1484 1486 1487 1489 1493 1497 1501 1503 1505 1509 1511 1511 1511 1512 1514 1517 1519 1521 1523 1525 1528 1531 1535 1538 1539 1540 1540 1541 1542 1543 1544 1545 1547 1548 1549 1550 1551
1434 1436 1440 1440 1443 1447 1447 1445 1444 1445 1447 1446 1442 1440 1439 1439 1442 1444 1443 1447 1453 1452 1444 1447 1459 1453 1437 1435 1436 1437 1441 1444 1446 1449 1451 1453 1455 1457 1459 1461 1463 1466 1469 1472 1473 1474 1475 1477 1480 1482 1484 1485 1489 1493 1496 1498 1499 1502 1505 1506 1508 1510 1513 1515 1517 1520 1522 1523 1525 1527 1530 1533 1536 1539 1540 1540 1540 1541 1542 1543 1544 1546 1547 1548 1549 1550
1432 1437 1442 1441 1443 1445 1443 1441 1440 1441 1444 1441 1438 1441 1442 1440 1443 1443 1443 1446 1445 1441 1440 1442 1449 1451 1440 1430 1428 1431 1437 1440 1442 1446 1448 1449 1451 1454 1455 1458 1460 1463 1466 1468 1470 1472 1473 1475 1477 1480 1482 1485 1489 1492 1494 1495 1496 1500 1503 1505 1507 1509 1510 1512 1515 1519 1521 1522 1524 1526 1528 1531 1534 1537 1538 1539 1540 1540 1541 1542 1543 1545 1547 1548 1549 1550
1430 1436 1441 1441 1441 1440 1437 1436 1436 1440 1442 1436 1435 1441 1442 1442 1442 1441 1442 1445 1440 1442 1447 1443 1444 1452 1444 1428 1425 1428 1433 1437 1438 1442 1445 1445 1447 1450 1452 1455 1458 1461 1463 1465 1467 1469 1471 1473 1475 1478 1481 1484 1487 1490 1491 1492 1495 1499 1502 1504 1504 1505 1507 1510 1513 1517 1520 1521 1522 1524 1527 1529 1532 1534 1536 1537 1538 1540 1541 1542 1543 1545 1546 1547 1549 1550
1431 1435 1439 1439 1437 1434 1433 1433 1435 1440 1439 1434 1436 1440 1441 1442 1442 1443 1444 1442 1442 1450 1452 1440 1438 1450 1445 1429 1426 1431 1432 1433 1434 1437 1440 1441 1444 1447 1449 1453 1456 1458 1461 1463 1465 1467 1469 1470 1473 1477 1480 1483 1486 1488 1489 1491 1494 1497 1498 1499 1500 1501 1504 1507 1511 1515 1518 1520 1521 1524 1527 1528 1530 1532 1533 1535 1537 1539 1540 1541 1543 1545 1545 1547 1549 1551
1432 1435 1438 1436 1433 1431 1431 1432 1435 1438 1437 1436 1438 1439 1441 1444 1443 1446 1444 1441 1449 1455 1448 1435 1430 1441 1445 1428 1420 1427 1429 1426 1429 1433 1436 1438 1441 1444 1447 1450 1453 1455 1458 1460 1463 1465 1467 1469 1472 1475 1478 1481 1484 1485 1487 1489 1490 1493 1494 1496 1499 1501 1503 1505 1509 1513 1516 1518 1522 1525 1527 1528 1529 1531 1532 1533 1536 1538 1540 1541 1542 1543 1546 1548 1549 1551
1433 1435 1436 1434 1432 1431 1430 1432 1436 1438 1436 1438 1438 1437 1443 1448 1447 1451 1450 1449 1458 1454 1439 1430 1426 1435 1445 1429 1413 1417 1421 1421 1424 1427 1431 1434 1437 1440 1444 1447 1449 1452 1455 1457 1460 1463 1465 1467 1470 1473 1476 1479 1481 1483 1484 1485 1486 1490 1494 1497 1499 1501 1503 1506 1508 1511 1513 1516 1521 1524 1526 1527 1528 1530 1532 1533 1536 1538 1540 1541 1542 1543 1546 1546 1547 1549
1434 1431 1431 1434 1433 1431 1430 1432 1436 1438 1436 1436 1435 1434 1443 1450 1454 1459 1454 1451 1454 1444 1429 1425 1427 1436 1437 1422 1413 1414 1416 1418 1420 1422 1426 1430 1433 1437 1441 1444 1447 1449 1452 1454 1457 1460 1462 1464 1467 1470 1474 1477 1479 1481 1481 1482 1485 1489 1493 1495 1497 1499 1502 1505 1507 1510 1513 1516 1520 1522 1524 1526 1527 1529 1532 1533 1535 1537 1539 1540 1541 1543 1544 1545 1546 1547
1435 1431 1429 1432 1432 1431 1429 1428 1431 1434 1432 1432 1429 1430 1435 1441 1454 1460 1449 1445 1446 1438 1429 1426 1431 1439 1432 1418 1414 1416 1416 1416 1417 1420 1422 1426 1430 1435 1438 1441 1444 1446 1449 1452 1454 1457 1459 1461 1464 1467 1472 1474 1476 1478 1479 1480 1484 1488 1491 1494 1496 1498 1501 1503 1506 1509 1513 1516 1518 1520 1523 1525 1526 1528 1530 1532 1534 1535 1537 1539 1540 1542 1543 1544 1545 1545
1434 1434 1429 1427 1428 1430 1427 1421 1423 1427 1428 1427 1421 1423 1425 1425 1439 1448 1439 1439 1439 1433 1432 1435 1437 1438 1430 1417 1411 1412 1416 1417 1418 1420 1422 1424 1428 1432 1435 1439 1442 1444 1446 1449 1452 1455 1457 1459 1462 1465 1469 1471 1473 1475 1477 1479 1482 1486 1490 1493 1495 1498 1499 1502 1505 1508 1512 1515 1516 1518 1521 1524 1526 1528 1530 1532 1533 1534 1536 1538 1539 1540 1541 1543 1544 1544
1427 1428 1423 1424 1424 1425 1425 1420 1419 1423 1428 1426 1419 1422 1423 1415 1421 1432 1432 1429 1428 1430 1435 1438 1434 1423 1415 1413 1410 1412 1415 1415 1418 1420 1422 1425 1427 1430 1433 1435 1439 1442 1444 1447 1450 1453 1455 1458 1461 1463 1466 1468 1470 1473 1475 1477 1481 1484 1489 1491 1493 1497 1499 1501 1504 1507 1511 1513 1514 1517 1520 1523 1526 1528 1529 1531 1532 1533 1534 1536 1537 1539 1541 1541 1544 1544
1421 1421 1418 1423 1423 1421 1424 1421 1418 1421 1424 1424 1422 1421 1417 1410 1413 1428 1436 1431 1430 1437 1436 1432 1430 1419 1413 1413 1409 1411 1414 1413 1416 1419 1421 1425 1426 1429 1432 1433 1436 1439 1441 1445 1447 1450 1453 1456 1459 1461 1463 1465 1467 1470 1473 1476 1479 1483 1487 1490 1492 1495 1497 1500 1503 1505 1509 1510 1512 1516 1519 1521 1524 1527 1528 1529 1530 1531 1533 1535 1537 1540 1540 1541 1543 1545
1414 1419 1419 1421 1421 1420 1423 1421 1419 1418 1416 1419 1423 1417 1413 1416 1417 1422 1434 1439 1441 1443 1432 1425 1429 1425 1422 1418 1408 1409 1415 1413 1414 1417 1418 1422 1425 1427 1429 1431 1434 1437 1440 1443 1445 1449 1451 1454 1456 1458 1461 1464 1466 1469 1472 1475 1479 1482 1485 1488 1491 1494 1495 1498 1501 1504 1508 1509 1512 1515 1517 1520 1523 1526 1527 1527 1529 1530 1531 1534 1538 1540 1540 1540 1543 1544
1408 1418 1423 1420 1418 1420 1422 1421 1422 1420 1414 1415 1417 1412 1416 1428 1429 1424 1431 1439 1443 1444 1434 1425 1425 1422 1418 1414 1407 1409 1412 1411 1412 1414 1415 1419 1421 1424 1426 1429 1432 1435 1438 1442 1444 1447 1449 1452 1454 1456 1460 1462 1464 1468 1471 1474 1477 1480 1483 1487 1490 1493 1494 1497 1500 1503 1507 1509 1511 1513 1516 1519 1522 1524 1526 1526 1527 1528 1529 1532 1537 1539 1539 1540 1542 1544
1405 1413 1421 1418 1415 1419 1421 1420 1422 1421 1416 1416 1415 1413 1415 1421 1422 1421 1423 1425 1429 1437 1436 1428 1425 1420 1410 1403 1402 1405 1405 1407 1410 1411 1413 1415 1417 1421 1424 1426 1430 1433 1436 1440 1442 1445 1447 1450 1452 1455 1458 1460 1462 1466 1469 1472 1476 1479 1482 1486 1489 1491 1493 1496 1499 1501 1505 1508 1510 1512 1514 1518 1521 1524 1525 1525 1526 1527 1528 1531 1534 1536 1537 1539 1542 1543
1407 1410 1417 1415 1413 1418 1419 1416 1415 1415 1417 1420 1418 1417 1418 1415 1413 1414 1416 1413 1414 1424 1430 1430 1429 1415 1399 1395 1399 1400 1400 1402 1406 1409 1411 1412 1414 1418 1422 1424 1428 1431 1435 1438 1441 1443 1446 1448 1451 1454 1457 1459 1461 1464 1467 1471 1474 1478 1482 1485 1488 1490 1491 1494 1497 1500 1504 1508 1511 1512 1514 1517 1520 1523 1524 1524 1525 1525 1526 1529 1532 1534 1537 1539 1541 1542
1409 1409 1411 1412 1412 1414 1413 1411 1410 1409 1413 1417 1416 1414 1415 1415 1414 1419 1422 1415 1409 1412 1415 1423 1425 1408 1392 1393 1396 1396 1397 1398 1400 1405 1408 1410 1413 1417 1420 1423 1427 1430 1433 1436 1438 1441 1444 1447 1450 1453 1455 1458 1460 1463 1466 1469 1473 1477 1481 1484 1487 1488 1490 1494 1497 1500 1503 1507 1509 1511 1514 1516 1518 1520 1521 1522 1523 1524 1525 1527 1530 1533 1536 1538 1540 1541
1409 1407 1407 1409 1409 1408 1409 1410 1410 1408 1409 1413 1413 1410 1410 1411 1413 1419 1424 1418 1413 1411 1407 1412 1418 1407 1395 1397 1397 1396 1397 1397 1399 1403 1405 1410 1414 1417 1420 1423 1426 1429 1432 1434 1437 1440 1443 1447 1450 1452 1454 1457 1459 1461 1465 1468 1472 1476 1480 1483 1486 1487 1490 1493 1496 1499 1502 1504 1506 1508 1511 1514 1516 1518 1519 1520 1521 1522 1524 1527 1530 1533 1535 1536 1538 1540
1410 1407 1405 1408 1407 1406 1407 1409 1410 1408 1408 1413 1412 1408 1407 1409 1409 1409 1408 1408 1412 1413 1409 1415 1419 1409 1399 1399 1399 1399 1400 1400 1402 1404 1406 1410 1414 1417 1420 1422 1425 1428 1430 1433 1437 1440 1443 1446 1448 1451 1453 1456 1458 1461 1464 1468 1472 1476 1480 1483 1485 1488 1490 1492 1495 1498 1500 1501 1503 1506 1509 1510 1513 1515 1517 1518 1519 1521 1523 1526 1529 1532 1534 1535 1537 1539
1409 1403 1401 1408 1414 1417 1417 1417 1417 1412 1408 1410 1410 1407 1406 1406 1407 1407 1404 1406 1413 1410 1405 1411 1412 1404 1400 1400 1399 1400 1401 1402 1404 1406 1408 1411 1413 1416 1419 1421 1424 1427 1430 1433 1436 1439 1442 1444 1447 1450 1452 1455 1457 1460 1464 1468 1472 1475 1479 1481 1484 1487 1489 1491 1494 1497 1498 1500 1502 1504 1506 1508 1511 1513 1514 1516 1518 1521 1524 1527 1529 1531 1533 1534 1536 1538
1407 1402 1399 1406 1415 1421 1420 1415 1411 1409 1406 1406 1406 1406 1407 1406 1407 1411 1411 1414 1418 1410 1405 1406 1401 1397 1399 1398 1398 1401 1401 1402 1404 1406 1409 1411 1413 1416 1418 1421 1424 1426 1429 1432 1435 1438 1440 1443 1446 1448 1451 1454 1457 1460 1463 1467 1471 1474 1477 1480 1484 1486 1487 1490 1494 1496 1498 1500 1502 1503 1505 1507 1510 1511 1512 1514 1518 1522 1525 1527 1529 1531 1532 1534 1536 1538
1405 1401 1397 1398 1401 1402 1403 1400 1396 1399 1404 1407 1406 1406 1407 1406 1406 1409 1413 1414 1412 1409 1409 1403 1396 1398 1399 1394 1397 1402 1402 1404 1405 1407 1409 1411 1414 1416 1418 1421 1424 1426 1430 1432 1434 1437 1440 1442 1445 1448 1451 1454 1456 1460 1463 1466 1470 1472 1476 1480 1483 1485 1487 1491 1494 1496 1498 1499 1501 1502 1504 1506 1508 1510 1512 1514 1518 1522 1524 1527 1529 1530 1532 1534 1536 1537
1406 1404 1399 1397 1394 1388 1389 1394 1394 1397 1403 1406 1406 1407 1407 1407 1407 1410 1413 1409 1404 1408 1411 1402 1398 1404 1401 1394 1397 1401 1403 1406 1406 1407 1409 1411 1414 1416 1418 1421 1424 1426 1429 1431 1434 1437 1439 1442 1445 1447 1450 1453 1456 1459 1462 1465 1468 1472 1476 1480 1482 1484 1488 1491 1493 1496 1497 1498 1500 1501 1502 1504 1507 1509 1512 1514 1517 1520 1524 1527 1528 1530 1532 1534 1535 1537
1407 1405 1401 1400 1397 1389 1388 1393 1395 1397 1401 1403 1405 1407 1408 1408 1409 1411 1412 1407 1403 1407 1409 1406 1407 1408 1401 1396 1398 1402 1404 1406 1406 1408 1410 1412 1414 1417 1418 1421 1424 1425 1428 1431 1434 1436 1439 1442 1444 1447 1450 1452 1455 1458 1461 1464 1468 1472 1476 1479 1481 1485 1488 1490 1492 1493 1495 1497 1500 1501 1502 1504 1505 1508 1511 1514 1517 1520 1523 1526 1528 1529 1531 1533 1534 1536
1407 1405 1401 1401 1399 1395 1393 1392 1392 1395 1399 1401 1403 1405 1406 1408 1409 1411 1412 1409 1406 1406 1404 1406 1409 1406 1401 1399 1401 1403 1406 1407 1408 1410 1411 1412 1415 1416 1418 1421 1423 1425 1428 1430 1433 1436 1439 1441 1444 1446 1449 1452 1455 1457 1460 1464 1468 1472 1476 1479 1481 1484 1486 1489 1491 1492 1493 1496 1498 1499 1501 1503 1505 1507 1510 1513 1516 1519 1522 1525 1527 1528 1530 1532 1533 1534
1409 1406 1401 1399 1398 1397 1395 1391 1391 1394 1397 1400 1402 1402 1404 1408 1409 1411 1411 1410 1408 1407 1406 1409 1410 1405 1400 1401 1403 1405 1407 1407 1409 1410 1411 1412 1414 1416 1418 1421 1423 1425 1428 1431 1434 1436 1439 1441 1444 1446 1449 1452 1454 1457 1461 1465 1469 1472 1475 1477 1480 1483 1485 1488 1490 1492 1493 1494 1495 1498 1500 1503 1505 1507 1510 1513 1516 1519 1521 1523 1526 1528 1529 1531 1532 1533
1409 1405 1399 1396 1397 1396 1395 1393 1392 1393 1396 1400 1401 1401 1402 1406 1408 1408 1409 1408 1407 1407 1410 1413 1410 1404 1402 1403 1405 1406 1407 1407 1408 1409 1410 1412 1414 1415 1417 1419 1422 1425 1428 1430 1433 1436 1438 1440 1443 1445 1448 1451 1454 1458 1461 1465 1469 1472 1474 1476 1479 1482 1484 1487 1489 1491 1492 1493 1494 1497 1500 1503 1505 1508 1510 1513 1515 1518 1521 1523 1525 1527 1528 1529 1531 1532
1404 1403 1399 1396 1396 1395 1394 1393 1391 1394 1403 1405 1400 1397 1399 1402 1404 1405 1405 1405 1404 1407 1412 1412 1406 1403 1404 1405 1405 1406 1407 1407 1408 1409 1410 1412 1413 1415 1417 1419 1422 1424 1427 1429 1432 1434 1437 1439 1442 1445 1448 1451 1454 1458 1462 1465 1469 1472 1474 1477 1479 1482 1484 1486 1488 1489 1490 1492 1494 1496 1499 1502 1505 1508 1511 1513 1516 1518 1520 1522 1524 1526 1527 1528 1530 1532
1403 1403 1400 1397 1396 1395 1394 1392 1393 1400 1409 1406 1396 1392 1395 1398 1401 1404 1404 1403 1403 1405 1407 1405 1402 1402 1405 1405 1406 1407 1407 1406 1407 1408 1410 1412 1414 1416 1417 1419 1422 1424 1427 1429 1431 1434 1436 1439 1442 1445 1449 1452 1455 1459 1463 1466 1469 1471 1474 1476 1478 1480 1483 1485 1486 1487 1489 1491 1494 1496 1499 1502 1505 1508 1511 1514 1516 1518 1520 1522 1523 1525 1526 1528 1530 1532
1404 1402 1401 1398 1394 1394 1395 1397 1404 1410 1406 1400 1397 1394 1395 1396 1398 1401 1401 1400 1401 1402 1403 1404 1403 1404 1405 1406 1407 1408 1408 1407 1408 1409 1410 1412 1414 1416 1417 1420 1422 1425 1427 1430 1432 1434 1437 1439 1442 1445 1448 1452 1455 1459 1463 1466 1468 1471 1473 1475 1477 1479 1481 1483 1484 1486 1489 1491 1493 1495 1498 1501 1505 1508 1511 1513 1515 1517 1519 1521 1523 1524 1526 1527 1529 1531
1405 1403 1402 1397 1391 1394 1397 1401 1409 1410 1401 1399 1401 1399 1399 1400 1401 1403 1405 1402 1401 1402 1403 1404 1405 1405 1406 1408 1410 1409 1409 1409 1409 1410 1411 1413 1414 1416 1418 1420 1423 1425 1428 1430 1432 1435 1437 1439 1442 1444 1448 1451 1455 1459 1462 1465 1468 1471 1472 1474 1476 1478 1480 1482 1484 1486 1488 1491 1493 1495 1498 1502 1505 1508 1510 1513 1515 1516 1519 1521 1522 1524 1526 1527 1529 1531
1405 1404 1401 1397 1392 1392 1395 1398 1401 1403 1402 1402 1403 1401 1401 1402 1402 1405 1408 1405 1402 1403 1404 1404 1406 1407 1408 1409 1410 1410 1410 1410 1410 1410 1412 1413 1414 1416 1418 1421 1424 1426 1428 1430 1433 1435 1437 1439 1442 1445 1449 1452 1456 1460 1462 1465 1467 1470 1472 1473 1474 1477 1479 1481 1483 1485 1488 1490 1492 1495 1498 1502 1504 1507 1510 1512 1514 1516 1518 1520 1521 1523 1525 1527 1528 1529
1405 1402 1398 1397 1392 1386 1389 1397 1402 1406 1408 1405 1402 1402 1403 1403 1403 1405 1406 1405 1403 1404 1404 1405 1405 1407 1409 1409 1410 1411 1410 1410 1409 1409 1412 1414 1415 1417 1419 1421 1424 1426 1428 1430 1433 1435 1437 1439 1443 1447 1450 1453 1457 1460 1462 1465 1467 1469 1471 1472 1474 1476 1479 1481 1483 1486 1488 1490 1492 1495 1498 1501 1504 1507 1509 1511 1513 1515 1516 1518 1520 1522 1524 1526 1527 1528
1403 1400 1398 1397 1391 1384 1388 1395 1399 1405 1410 1405 1401 1403 1404 1404 1405 1406 1407 1408 1406 1404 1405 1404 1404 1406 1407 1409 1410 1410 1410 1411 1410 1410 1413 1416 1417 1419 1420 1422 1425 1427 1429 1431 1433 1435 1437 1440 1444 1447 1450 1453 1456 1459 1462 1464 1467 1469 1471 1472 1474 1477 1479 1481 1483 1485 1488 1490 1492 1495 1498 1500 1503 1506 1508 1510 1512 1513 1515 1517 1519 1521 1524 1525 1527 1528
1399 1399 1398 1395 1388 1384 1386 1391 1396 1404 1409 1406 1403 1403 1404 1405 1407 1409 1413 1413 1407 1405 1406 1404 1403 1404 1406 1408 1410 1409 1409 1412 1412 1413 1416 1418 1419 1421 1422 1424 1426 1428 1430 1432 1433 1435 1438 1441 1445 1447 1450 1453 1456 1459 1461 1463 1466 1469 1471 1472 1474 1477 1479 1481 1483 1485 1487 1489 1491 1494 1496 1499 1502 1504 1506 1508 1510 1512 1514 1516 1518 1520 1523 1525 1527 1529
1395 1395 1393 1388 1386 1385 1388 1393 1401 1407 1408 1405 1404 1404 1405 1406 1407 1409 1413 1413 1408 1406 1407 1406 1405 1405 1406 1408 1409 1407 1409 1413 1414 1415 1416 1418 1419 1422 1424 1425 1427 1429 1431 1432 1433 1435 1439 1442 1445 1448 1451 1453 1456 1458 1460 1462 1465 1468 1470 1472 1474 1477 1480 1481 1483 1485 1487 1488 1491 1493 1496 1499 1501 1503 1504 1506 1508 1510 1513 1515 1517 1519 1522 1525 1527 1528
1399 1397 1391 1388 1391 1392 1392 1396 1402 1407 1409 1407 1406 1405 1405 1406 1408 1410 1411 1411 1409 1408 1408 1407 1406 1406 1407 1408 1408 1408 1410 1413 1413 1413 1415 1418 1420 1422 1425 1427 1428 1430 1432 1433 1434 1436 1439 1442 1446 1449 1451 1453 1455 1457 1459 1462 1465 1468 1470 1472 1475 1477 1480 1482 1483 1485 1486 1488 1490 1493 1496 1498 1500 1501 1504 1506 1507 1510 1512 1514 1517 1519 1522 1524 1526 1527
1404 1400 1394 1396 1399 1395 1393 1399 1407 1413 1414 1408 1405 1406 1407 1407 1411 1413 1411 1410 1410 1409 1408 1408 1408 1407 1408 1409 1410 1410 1412 1413 1414 1414 1416 1419 1421 1423 1426 1428 1429 1430 1433 1435 1436 1437 1440 1443 1446 1448 1451 1452 1454 1456 1459 1462 1465 1467 1469 1471 1473 1476 1478 1480 1482 1484 1486 1488 1490 1492 1495 1497 1499 1501 1503 1505 1507 1509 1511 1513 1516 1518 1521 1524 1525 1527
1408 1404 1400 1404 1407 1401 1399 1408 1416 1418 1415 1410 1407 1410 1412 1412 1414 1414 1411 1409 1409 1409 1409 1409 1409 1409 1409 1410 1411 1413 1414 1415 1416 1417 1418 1420 1422 1424 1426 1428 1429 1431 1433 1435 1437 1438 1440 1443 1446 1448 1451 1453 1454 1457 1459 1462 1465 1467 1468 1470 1472 1473 1476 1478 1481 1483 1485 1488 1490 1492 1494 1496 1498 1501 1503 1504 1507 1509 1511 1513 1515 1517 1520 1523 1525 1527
1414 1414 1412 1413 1413 1409 1410 1417 1419 1416 1415 1414 1412 1413 1415 1415 1415 1414 1413 1411 1410 1410 1409 1409 1410 1411 1410 1411 1412 1414 1415 1416 1417 1418 1420 1421 1423 1425 1426 1427 1429 1431 1434 1435 1437 1439 1441 1444 1446 1448 1450 1453 1455 1457 1460 1462 1465 1467 1468 1470 1471 1472 1474 1477 1480 1482 1485 1487 1489 1491 1494 1496 1498 1500 1502 1504 1506 1508 1510 1512 1514 1517 1519 1522 1525 1527
1418 1417 1417 1416 1415 1414 1416 1418 1417 1416 1416 1416 1415 1416 1416 1416 1416 1415 1414 1413 1412 1412 1411 1410 1410 1411 1411 1412 1413 1415 1417 1418 1419 1419 1421 1423 1424 1426 1427 1428 1430 1432 1434 1436 1437 1439 1441 1444 1446 1448 1449 1452 1455 1457 1460 1462 1465 1467 1468 1469 1471 1473 1474 1476 1479 1481 1484 1486 1489 1491 1493 1495 1497 1500 1502 1504 1506 1508 1510 1512 1514 1516 1518 1521 1524 1527
1420 1418 1417 1417 1416 1417 1419 1420 1418 1417 1417 1416 1416 1417 1417 1418 1417 1416 1415 1414 1415 1414 1413 1411 1410 1410 1411 1413 1414 1416 1418 1419 1420 1421 1422 1424 1425 1427 1428 1430 1431 1433 1435 1437 1438 1440 1442 1444 1446 1447 1449 1452 1454 1456 1459 1462 1465 1466 1467 1469 1471 1473 1474 1476 1478 1480 1482 1485 1487 1490 1492 1494 1496 1498 1501 1504 1506 1508 1510 1512 1514 1516 1518 1521 1524 1526
1420 1418 1416 1417 1419 1420 1421 1420 1418 1418 1418 1418 1419 1420 1419 1419 1419 1417 1416 1417 1417 1416 1415 1414 1413 1412 1413 1414 1415 1417 1419 1420 1421 1421 1422 1424 1425 1427 1428 1430 1432 1433 1435 1437 1439 1441 1443 1444 1446 1447 1449 1452 1454 1456 1459 1461 1463 1465 1467 1468 1470 1473 1474 1476 1477 1479 1481 1484 1486 1488 1491 1493 1495 1497 1500 1503 1505 1507 1510 1512 1513 1515 1518 1521 1523 1525
1419 1418 1418 1420 1422 1422 1421 1419 1418 1419 1419 1420 1422 1422 1421 1419 1417 1417 1417 1417 1418 1417 1417 1416 1416 1416 1416 1416 1417 1418 1419 1420 1421 1422 1423 1424 1425 1426 1428 1429 1431 1433 1435 1436 1438 1440 1442 1443 1445 1447 1449 1452 1454 1456 1458 1460 1462 1464 1466 1468 1469 1472 1473 1475 1477 1479 1481 1483 1485 1487 1489 1492 1495 1498 1500 1502 1505 1507 1509 1511 1512 1515 1518 1521 1523 1525
1419 1420 1420 1420 1422 1423 1422 1420 1419 1419 1420 1421 1422 1423 1422 1420 1419 1419 1419 1418 1418 1419 1419 1418 1418 1418 1418 1418 1419 1419 1420 1421 1422 1423 1424 1425 1425 1426 1428 1429 1432 1433 1435 1436 1438 1440 1441 1443 1444 1446 1448 1451 1453 1455 1457 1459 1461 1463 1464 1466 1468 1470 1472 1474 1477 1479 1481 1483 1485 1486 1488 1491 1495 1497 1499 1502 1505 1506 1507 1509 1511 1514 1517 1519 1521 1523
1423 1423 1423 1422 1423 1424 1423 1422 1421 1420 1421 1422 1423 1423 1422 1422 1422 1422 1422 1422 1421 1421 1420 1420 1420 1419 1420 1420 1420 1421 1421 1422 1423 1424 1425 1425 1426 1427 1428 1430 1432 1434 1435 1437 1438 1439 1441 1442 1444 1446 1448 1450 1451 1453 1455 1458 1460 1462 1463 1465 1467 1469 1472 1474 1477 1478 1481 1483 1485 1486 1488 1491 1494 1497 1500 1502 1503 1504 1505 1507 1510 1512 1515 1517 1519 1521